EST,Max TemperatureF,Mean TemperatureF,Min TemperatureF,Max Dew PointF,MeanDew PointF,Min DewpointF,Max Humidity, Mean Humidity, Min Humidity, Max Sea Level PressureIn, Mean Sea Level PressureIn, Min Sea Level PressureIn, Max VisibilityMiles, Mean VisibilityMiles, Min VisibilityMiles, Max Wind SpeedMPH, Mean Wind SpeedMPH, Max Gust SpeedMPH,PrecipitationIn, CloudCover, Events, WindDirDegrees
2014-1-1,24,20,15,19,16,14,93,89,78,30.43,30.31,30.18,10,5,1,7,0,,0.02,6,Snow,47
2014-1-2,22,15,8,19,13,4,93,87,76,30.16,29.89,29.76,10,3,0,20,7,26,0.01,7,Fog-Snow,357
2014-1-3,12,7,2,1,-1,-3,79,70,54,30.52,30.35,30.03,10,10,5,16,9,25,0.00,4,Snow,317
2014-1-4,32,20,7,10,5,2,80,57,32,30.42,30.26,30.10,10,10,10,10,6,16,0.00,0,,191
2014-1-5,43,30,17,41,23,10,93,68,53,30.19,29.92,29.41,10,9,3,8,1,,0.05,7,Rain,144
2014-1-6,44,16,-11,45,9,-21,100,78,56,30.27,29.80,29.31,10,5,1,28,15,36,0.08,6,Rain-Snow,249
2014-1-7,1,-5,-11,-7,-14,-24,72,64,54,30.50,30.38,30.13,10,9,4,18,14,32,0.00,0,,227
2014-1-8,20,10,0,16,6,-7,92,74,57,30.57,30.51,30.41,10,9,2,7,2,,0.00,5,Snow,205
2014-1-9,29,22,16,25,18,12,93,82,63,30.69,30.52,30.36,10,8,1,7,1,,0.00,5,Snow,104
2014-1-10,43,36,28,40,33,27,100,95,86,30.39,30.24,29.93,10,5,1,10,2,16,0.08,7,Rain-Snow,157
2014-1-11,51,42,32,49,43,29,100,91,75,29.84,29.56,29.35,10,6,0,23,6,50,0.35,7,Fog-Rain,219
2014-1-12,34,32,30,30,28,26,100,85,75,30.11,29.93,29.69,10,8,2,15,9,22,0.00,6,,239
2014-1-13,47,39,31,45,36,27,100,82,52,30.01,29.85,29.72,10,8,2,12,5,20,0.18,5,Rain,183
2014-1-14,44,38,32,45,36,27,100,88,68,29.88,29.79,29.69,10,7,2,10,5,,0.06,6,Rain,260
2014-1-15,37,30,24,32,20,12,92,70,58,30.10,29.97,29.77,10,9,4,14,6,20,0.00,7,Snow,242
2014-1-16,31,25,19,18,14,11,74,60,47,30.07,29.96,29.82,10,10,8,12,6,17,0.00,5,,190
2014-1-17,37,28,19,30,24,12,100,79,60,30.01,29.84,29.77,10,8,0,20,9,26,0.00,6,Fog-Snow,213
2014-1-18,17,12,8,12,6,0,88,72,64,30.10,29.99,29.87,10,8,2,16,8,24,0.00,5,Snow,216
2014-1-19,30,22,15,20,15,12,93,82,64,29.89,29.79,29.69,10,7,1,18,3,26,0.00,6,Snow,215
2014-1-20,32,24,17,28,21,12,93,79,67,30.04,29.82,29.59,10,8,2,12,9,20,0.00,7,Rain-Snow,283
2014-1-21,18,9,-1,13,3,-8,88,72,51,30.20,30.03,29.90,10,8,2,17,9,22,0.00,4,Snow,13
2014-1-22,9,2,-6,2,-5,-11,83,70,58,30.21,30.13,30.00,10,10,7,7,2,,0.00,3,Snow,221
2014-1-23,11,7,2,4,1,-3,85,77,64,30.55,30.22,29.98,10,7,2,16,5,21,0.00,5,Snow,246
2014-1-24,16,6,-2,0,-4,-8,85,70,45,30.57,30.34,29.86,10,10,8,14,7,26,0.00,2,Snow,204
2014-1-25,25,18,10,21,12,-1,93,82,43,29.82,29.52,29.32,10,3,0,25,11,32,0.00,6,Fog-Snow,231
2014-1-26,31,16,3,22,6,-2,85,76,64,29.91,29.72,29.55,10,6,0,9,7,17,0.00,5,Snow,192
2014-1-27,36,17,-2,27,9,-10,93,74,47,30.40,29.86,29.46,10,5,0,23,15,40,0.00,5,Fog-Snow,260
2014-1-28,4,-4,-11,-10,-13,-17,78,64,48,30.54,30.45,30.28,10,10,10,10,6,,0.00,0,,219
2014-1-29,14,3,-8,-4,-9,-17,71,56,43,30.40,30.35,30.30,10,10,10,16,5,23,0.00,0,,208
2014-1-30,30,18,5,4,-2,-6,64,45,29,30.42,30.25,30.01,10,10,10,10,4,17,0.00,0,,175
2014-1-31,36,32,28,27,18,5,93,63,34,30.25,30.16,29.96,10,9,3,10,4,,0.00,6,Snow,224